status,avgMeasuredTime,avgSpeed,extID,medianMeasuredTime,TIMESTAMP,vehicleCount,_id,REPORT_ID
OK,75,31,796,75,2014-08-01T07:55:00,5,20746520,201535
OK,48,49,796,48,2014-08-01T08:00:00,4,20746851,201535
OK,44,54,796,44,2014-08-01T08:05:00,2,20747300,201535
OK,44,54,796,44,2014-08-01T08:10:00,2,20747673,201535
OK,79,30,796,79,2014-08-01T08:15:00,5,20748122,201535
OK,72,33,796,72,2014-08-01T08:20:00,8,20748571,201535
OK,57,42,796,57,2014-08-01T08:25:00,8,20749020,201535
OK,71,33,796,71,2014-08-01T08:30:00,4,20749469,201535
OK,59,40,796,59,2014-08-01T08:35:00,5,20749918,201535
OK,59,40,796,59,2014-08-01T08:40:00,7,20750367,201535
OK,49,48,796,49,2014-08-01T08:45:00,8,20750816,201535
OK,51,46,796,51,2014-08-01T08:50:00,7,20751265,201535
OK,60,39,796,60,2014-08-01T08:55:00,4,20751714,201535
OK,57,42,796,57,2014-08-01T09:00:00,2,20752163,201535
OK,59,40,796,59,2014-08-01T09:05:00,5,20752612,201535
OK,52,46,796,52,2014-08-01T09:10:00,5,20753061,201535
OK,42,57,796,42,2014-08-01T09:15:00,3,20753510,201535
OK,50,47,796,50,2014-08-01T09:20:00,6,20753959,201535
OK,69,34,796,69,2014-08-01T09:25:00,5,20754408,201535
OK,49,48,796,49,2014-08-01T09:30:00,6,20754857,201535
OK,50,47,796,50,2014-08-01T09:35:00,7,20755306,201535
OK,72,33,796,72,2014-08-01T09:40:00,6,20755755,201535
OK,69,34,796,69,2014-08-01T09:45:00,6,20756204,201535
OK,55,43,796,55,2014-08-01T09:50:00,4,20756653,201535
OK,51,46,796,51,2014-08-01T09:55:00,6,20757102,201535
OK,49,48,796,49,2014-08-01T10:00:00,6,20757551,201535
OK,64,37,796,64,2014-08-01T10:05:00,7,20758000,201535
OK,63,38,796,63,2014-08-01T10:10:00,6,20758449,201535
OK,51,46,796,51,2014-08-01T10:15:00,7,20758898,201535
OK,62,38,796,62,2014-08-01T10:20:00,13,20759347,201535
OK,76,31,796,76,2014-08-01T10:25:00,17,20759796,201535
OK,62,38,796,62,2014-08-01T10:30:00,6,20760245,201535
OK,50,47,796,50,2014-08-01T10:35:00,5,20760694,201535
OK,50,47,796,50,2014-08-01T10:40:00,5,20761143,201535
OK,83,28,796,83,2014-08-01T10:45:00,10,20761592,201535
OK,67,35,796,67,2014-08-01T10:50:00,10,20762041,201535
OK,91,26,796,91,2014-08-01T10:55:00,8,20762490,201535
OK,70,34,796,70,2014-08-01T11:00:00,14,20762939,201535
OK,65,36,796,65,2014-08-01T11:05:00,12,20763388,201535
OK,62,38,796,62,2014-08-01T11:10:00,12,20763837,201535
OK,78,30,796,78,2014-08-01T11:15:00,4,20764285,201535
OK,51,46,796,51,2014-08-01T11:20:00,5,20764734,201535
OK,51,46,796,51,2014-08-01T11:25:00,17,20765183,201535
OK,53,45,796,53,2014-08-01T11:30:00,15,20765632,201535
OK,71,33,796,71,2014-08-01T11:35:00,17,20766081,201535
OK,62,38,796,62,2014-08-01T11:40:00,19,20766530,201535
OK,45,53,796,45,2014-08-01T11:45:00,5,20766979,201535
OK,82,29,796,82,2014-08-01T11:50:00,8,20767428,201535
OK,83,28,796,83,2014-08-01T11:55:00,11,20767877,201535
OK,71,33,796,71,2014-08-01T12:00:00,14,20768326,201535
OK,68,35,796,68,2014-08-01T12:05:00,12,20768775,201535
OK,79,30,796,79,2014-08-01T12:10:00,7,20769224,201535
OK,60,39,796,60,2014-08-01T12:15:00,18,20769673,201535
OK,59,40,796,59,2014-08-01T12:20:00,17,20770122,201535
OK,86,27,796,86,2014-08-01T12:25:00,8,20770571,201535
OK,95,25,796,95,2014-08-01T12:30:00,9,20771020,201535
OK,77,31,796,77,2014-08-01T12:35:00,17,20771469,201535
OK,74,32,796,74,2014-08-01T12:40:00,20,20771918,201535
OK,86,27,796,86,2014-08-01T12:45:00,13,20772367,201535
OK,87,27,796,87,2014-08-01T12:50:00,10,20772816,201535
OK,90,26,796,90,2014-08-01T12:55:00,17,20773265,201535
OK,82,29,796,82,2014-08-01T13:00:00,18,20773714,201535
OK,89,26,796,89,2014-08-01T13:05:00,13,20774163,201535
OK,89,26,796,89,2014-08-01T13:10:00,11,20774612,201535
OK,54,44,796,54,2014-08-01T13:15:00,6,20775061,201535
OK,67,35,796,67,2014-08-01T13:20:00,7,20775510,201535
OK,88,27,796,88,2014-08-01T13:25:00,9,20775959,201535
OK,78,30,796,78,2014-08-01T13:30:00,8,20776408,201535
OK,68,35,796,68,2014-08-01T13:35:00,7,20776857,201535
OK,78,30,796,78,2014-08-01T13:40:00,7,20777306,201535
OK,74,32,796,74,2014-08-01T13:45:00,13,20777755,201535
OK,77,31,796,77,2014-08-01T13:50:00,18,20778204,201535
OK,88,27,796,88,2014-08-01T13:55:00,12,20778653,201535
OK,128,18,796,128,2014-08-01T14:00:00,9,20779102,201535
OK,130,18,796,130,2014-08-01T14:05:00,15,20779551,201535
OK,95,25,796,95,2014-08-01T14:10:00,12,20780000,201535
OK,90,26,796,90,2014-08-01T14:15:00,8,20780449,201535
OK,106,22,796,106,2014-08-01T14:20:00,12,20780898,201535
OK,93,25,796,93,2014-08-01T14:25:00,10,20781347,201535
OK,55,43,796,55,2014-08-01T14:30:00,6,20781796,201535
OK,58,41,796,58,2014-08-01T14:35:00,5,20782245,201535
OK,55,43,796,55,2014-08-01T14:40:00,6,20782694,201535
OK,67,35,796,67,2014-08-01T14:45:00,8,20783143,201535
OK,91,26,796,91,2014-08-01T14:50:00,9,20783592,201535
OK,89,26,796,89,2014-08-01T14:55:00,9,20784041,201535
OK,81,29,796,81,2014-08-01T15:00:00,14,20784490,201535
OK,81,29,796,81,2014-08-01T15:05:00,16,20784939,201535
OK,82,29,796,82,2014-08-01T15:10:00,8,20785388,201535
OK,65,36,796,65,2014-08-01T15:15:00,10,20785837,201535
OK,78,30,796,78,2014-08-01T15:20:00,10,20786286,201535
OK,75,31,796,75,2014-08-01T15:25:00,5,20786735,201535
OK,55,43,796,55,2014-08-01T15:30:00,3,20787184,201535
OK,69,34,796,69,2014-08-01T15:35:00,3,20787633,201535
OK,54,44,796,54,2014-08-01T15:40:00,7,20788082,201535
OK,54,44,796,54,2014-08-01T15:45:00,5,20788531,201535
OK,87,27,796,87,2014-08-01T15:50:00,9,20788980,201535
OK,86,27,796,86,2014-08-01T15:55:00,12,20789429,201535
OK,78,30,796,78,2014-08-01T16:00:00,11,20789878,201535
OK,76,31,796,76,2014-08-01T16:05:00,9,20790327,201535
OK,63,38,796,63,2014-08-01T16:10:00,5,20790776,201535
OK,62,38,796,62,2014-08-01T16:15:00,6,20791225,201535
OK,53,45,796,53,2014-08-01T16:20:00,7,20791674,201535
OK,71,33,796,71,2014-08-01T16:25:00,8,20792123,201535
OK,88,27,796,88,2014-08-01T16:30:00,5,20792572,201535
OK,80,29,796,80,2014-08-01T16:35:00,5,20793021,201535
OK,84,28,796,84,2014-08-01T16:40:00,3,20793470,201535
OK,90,26,796,90,2014-08-01T16:45:00,4,20793919,201535
OK,90,26,796,90,2014-08-01T16:50:00,4,20794368,201535
OK,62,38,796,62,2014-08-01T16:55:00,5,20794817,201535
OK,60,39,796,60,2014-08-01T17:00:00,5,20795266,201535
OK,57,42,796,57,2014-08-01T17:05:00,3,20795715,201535
OK,60,39,796,60,2014-08-01T17:10:00,2,20796164,201535
OK,62,38,796,62,2014-08-01T17:15:00,4,20796613,201535
OK,76,31,796,76,2014-08-01T17:20:00,5,20797062,201535
OK,47,50,796,47,2014-08-01T17:25:00,4,20797511,201535
OK,41,58,796,41,2014-08-01T17:30:00,6,20797960,201535
OK,41,58,796,41,2014-08-01T17:35:00,5,20798409,201535
OK,59,40,796,59,2014-08-01T17:40:00,4,20798858,201535
OK,65,36,796,65,2014-08-01T17:45:00,3,20799307,201535
OK,65,36,796,65,2014-08-01T17:50:00,3,20799756,201535
OK,69,34,796,69,2014-08-01T17:55:00,1,20800205,201535
OK,42,57,796,42,2014-08-01T18:00:00,2,20800654,201535
OK,42,57,796,42,2014-08-01T18:05:00,3,20801103,201535
OK,72,33,796,72,2014-08-01T18:10:00,1,20801552,201535
OK,53,45,796,53,2014-08-01T18:15:00,2,20802001,201535
OK,36,66,796,36,2014-08-01T18:20:00,4,20802450,201535
OK,41,58,796,41,2014-08-01T18:25:00,4,20802899,201535
OK,44,54,796,44,2014-08-01T18:30:00,2,20803348,201535
OK,40,59,796,40,2014-08-01T18:35:00,2,20803797,201535
OK,45,53,796,45,2014-08-01T18:40:00,2,20804246,201535
OK,54,44,796,54,2014-08-01T18:45:00,2,20804695,201535
OK,51,46,796,51,2014-08-01T18:50:00,2,20805144,201535
OK,38,63,796,38,2014-08-01T18:55:00,1,20805593,201535
OK,42,57,796,42,2014-08-01T19:00:00,2,20806042,201535
OK,47,50,796,47,2014-08-01T19:05:00,5,20806491,201535
OK,54,44,796,54,2014-08-01T19:10:00,5,20806940,201535
OK,54,44,796,54,2014-08-01T19:15:00,1,20807389,201535
OK,51,46,796,51,2014-08-01T19:20:00,3,20807838,201535
OK,51,46,796,51,2014-08-01T19:25:00,5,20808287,201535
OK,47,50,796,47,2014-08-01T19:30:00,6,20808736,201535
OK,39,61,796,39,2014-08-01T19:35:00,2,20809185,201535
OK,51,46,796,51,2014-08-01T19:40:00,2,20809634,201535
OK,64,37,796,64,2014-08-01T19:45:00,2,20810083,201535
OK,51,46,796,51,2014-08-01T19:50:00,2,20810532,201535
OK,50,47,796,50,2014-08-01T19:55:00,5,20810981,201535
OK,45,53,796,45,2014-08-01T22:00:00,0,20816710,201535
OK,55,43,796,55,2014-08-01T22:05:00,0,20817159,201535
OK,47,50,796,47,2014-08-01T22:10:00,2,20817481,201535
OK,50,47,796,50,2014-08-01T22:20:00,4,20818200,201535
OK,37,64,796,37,2014-08-02T00:00:00,0,20823149,201535
OK,37,64,796,37,2014-08-02T00:05:00,0,20823598,201535
OK,37,64,796,37,2014-08-02T00:10:00,0,20824047,201535
OK,37,64,796,37,2014-08-02T00:15:00,0,20824496,201535
OK,37,64,796,37,2014-08-02T00:20:00,0,20824945,201535
OK,37,64,796,37,2014-08-02T00:25:00,1,20825394,201535
OK,38,63,796,38,2014-08-02T00:30:00,1,20825843,201535
OK,39,61,796,39,2014-08-02T00:35:00,0,20826292,201535
OK,45,53,796,45,2014-08-02T00:40:00,1,20826741,201535
OK,45,53,796,45,2014-08-02T00:45:00,0,20827190,201535
OK,45,53,796,45,2014-08-02T00:50:00,0,20827639,201535
OK,45,53,796,45,2014-08-02T00:55:00,0,20828088,201535
OK,45,53,796,45,2014-08-02T01:00:00,0,20828537,201535
OK,45,53,796,45,2014-08-02T01:05:00,0,20828986,201535
OK,45,53,796,45,2014-08-02T01:10:00,0,20829435,201535
OK,45,53,796,45,2014-08-02T01:15:00,0,20829884,201535
OK,45,53,796,45,2014-08-02T01:20:00,0,20830333,201535
OK,45,53,796,45,2014-08-02T01:25:00,0,20830782,201535
OK,45,53,796,45,2014-08-02T01:30:00,0,20831231,201535
OK,45,53,796,45,2014-08-02T01:35:00,0,20831680,201535
OK,45,53,796,45,2014-08-02T01:40:00,0,20832129,201535
OK,45,53,796,45,2014-08-02T01:45:00,0,20832578,201535
OK,45,53,796,45,2014-08-02T01:50:00,0,20833027,201535
OK,45,53,796,45,2014-08-02T01:55:00,0,20833476,201535
OK,45,53,796,45,2014-08-02T02:00:00,0,20833925,201535
OK,45,53,796,45,2014-08-02T02:05:00,0,20834374,201535
OK,35,68,796,35,2014-08-02T02:10:00,1,20834823,201535
OK,35,68,796,35,2014-08-02T02:15:00,1,20835272,201535
OK,35,68,796,35,2014-08-02T02:20:00,0,20835721,201535
OK,33,72,796,33,2014-08-02T02:25:00,0,20836170,201535
OK,33,72,796,33,2014-08-02T02:30:00,1,20836619,201535
OK,33,72,796,33,2014-08-02T02:35:00,0,20837068,201535
OK,33,72,796,33,2014-08-02T02:40:00,0,20837517,201535
OK,28,85,796,28,2014-08-02T02:45:00,0,20837966,201535
OK,28,85,796,28,2014-08-02T02:50:00,0,20838415,201535
OK,28,85,796,28,2014-08-02T02:55:00,0,20838864,201535
OK,28,85,796,28,2014-08-02T03:00:00,0,20839313,201535
OK,28,85,796,28,2014-08-02T03:05:00,0,20839762,201535
OK,28,85,796,28,2014-08-02T03:10:00,0,20840211,201535
OK,28,85,796,28,2014-08-02T03:15:00,0,20840660,201535
OK,28,85,796,28,2014-08-02T03:20:00,0,20841109,201535
OK,28,85,796,28,2014-08-02T03:25:00,0,20841558,201535
OK,28,85,796,28,2014-08-02T03:30:00,0,20842007,201535
OK,28,85,796,28,2014-08-02T03:35:00,0,20842456,201535
OK,28,85,796,28,2014-08-02T03:40:00,0,20842905,201535
OK,28,85,796,28,2014-08-02T03:45:00,0,20843354,201535
OK,33,72,796,33,2014-08-02T03:50:00,1,20843803,201535
OK,33,72,796,33,2014-08-02T03:55:00,0,20844252,201535
OK,36,66,796,36,2014-08-02T04:10:00,1,20845341,201535
OK,36,66,796,36,2014-08-02T04:20:00,0,20845698,201535
OK,36,66,796,36,2014-08-02T04:25:00,0,20846254,201535
OK,36,66,796,36,2014-08-02T04:35:00,0,20846621,201535
OK,36,66,796,36,2014-08-02T04:40:00,0,20847004,201535
OK,36,66,796,36,2014-08-02T04:45:00,0,20847263,201535
OK,36,66,796,36,2014-08-02T04:50:00,0,20847629,201535
OK,54,44,796,54,2014-08-02T05:20:00,3,20849400,201535
OK,39,61,796,39,2014-08-02T05:40:00,1,20850490,201535
OK,60,39,796,60,2014-08-02T05:50:00,2,20851149,201535
OK,60,39,796,60,2014-08-02T06:00:00,0,20851706,201535
OK,55,43,796,55,2014-08-02T06:05:00,1,20852155,201535
OK,43,55,796,43,2014-08-02T06:10:00,1,20852604,201535
OK,44,54,796,44,2014-08-02T06:15:00,3,20853053,201535
OK,52,46,796,52,2014-08-02T06:20:00,0,20853502,201535
OK,45,53,796,45,2014-08-02T06:25:00,1,20853951,201535
OK,45,53,796,45,2014-08-02T06:30:00,3,20854400,201535
OK,43,55,796,43,2014-08-02T06:35:00,2,20854849,201535
OK,76,31,796,76,2014-08-02T06:40:00,3,20855298,201535
OK,60,39,796,60,2014-08-02T06:45:00,4,20855747,201535
OK,46,52,796,46,2014-08-02T06:50:00,3,20856196,201535
OK,41,58,796,41,2014-08-02T06:55:00,5,20856645,201535
OK,41,58,796,41,2014-08-02T07:00:00,4,20857094,201535
OK,70,34,796,70,2014-08-02T07:05:00,1,20857543,201535
OK,75,31,796,75,2014-08-02T07:10:00,4,20857992,201535
OK,57,42,796,57,2014-08-02T07:15:00,3,20858441,201535
OK,41,58,796,41,2014-08-02T07:20:00,2,20858890,201535
OK,39,61,796,39,2014-08-02T07:25:00,1,20859339,201535
OK,70,34,796,70,2014-08-02T07:30:00,3,20859788,201535
OK,62,38,796,62,2014-08-02T07:35:00,4,20860237,201535
OK,55,43,796,55,2014-08-02T07:40:00,3,20860686,201535
OK,50,47,796,50,2014-08-02T07:45:00,2,20861135,201535
OK,50,47,796,50,2014-08-02T07:50:00,2,20861584,201535
OK,64,37,796,64,2014-08-02T07:55:00,6,20862033,201535
OK,71,33,796,71,2014-08-02T08:00:00,5,20862482,201535
OK,59,40,796,59,2014-08-02T08:05:00,9,20862931,201535
OK,59,40,796,59,2014-08-02T08:10:00,7,20863380,201535
OK,47,50,796,47,2014-08-02T08:15:00,2,20863829,201535
OK,50,47,796,50,2014-08-02T08:20:00,6,20864278,201535
OK,59,40,796,59,2014-08-02T08:25:00,5,20864727,201535
OK,66,36,796,66,2014-08-02T08:30:00,4,20865176,201535
OK,70,34,796,70,2014-08-02T08:35:00,5,20865625,201535
OK,90,26,796,90,2014-08-02T08:40:00,8,20866074,201535
OK,86,27,796,86,2014-08-02T08:45:00,10,20866523,201535
OK,72,33,796,72,2014-08-02T08:50:00,9,20866972,201535
OK,76,31,796,76,2014-08-02T08:55:00,10,20867421,201535
OK,51,46,796,51,2014-08-02T09:00:00,7,20867870,201535
OK,48,49,796,48,2014-08-02T09:05:00,5,20868319,201535
OK,55,43,796,55,2014-08-02T09:10:00,4,20868768,201535
OK,56,42,796,56,2014-08-02T09:15:00,9,20869217,201535
OK,70,34,796,70,2014-08-02T09:20:00,12,20869666,201535
OK,71,33,796,71,2014-08-02T09:25:00,8,20870115,201535
OK,70,34,796,70,2014-08-02T09:30:00,4,20870564,201535
OK,62,38,796,62,2014-08-02T09:35:00,4,20871013,201535
OK,69,34,796,69,2014-08-02T09:40:00,5,20871462,201535
OK,56,42,796,56,2014-08-02T09:45:00,8,20871911,201535
OK,58,41,796,58,2014-08-02T09:50:00,9,20872360,201535
OK,68,35,796,68,2014-08-02T09:55:00,7,20872809,201535
OK,68,35,796,68,2014-08-02T10:00:00,5,20873258,201535
OK,42,57,796,42,2014-08-02T10:05:00,3,20873707,201535
OK,71,33,796,71,2014-08-02T10:10:00,3,20874156,201535
OK,46,52,796,46,2014-08-02T10:15:00,8,20874605,201535
OK,46,52,796,46,2014-08-02T10:20:00,10,20875054,201535
OK,60,39,796,60,2014-08-02T10:25:00,7,20875503,201535
OK,60,39,796,60,2014-08-02T10:30:00,7,20875952,201535
OK,71,33,796,71,2014-08-02T10:35:00,9,20876401,201535
OK,65,36,796,65,2014-08-02T10:40:00,11,20876850,201535
OK,82,29,796,82,2014-08-02T10:45:00,5,20877299,201535
OK,69,34,796,69,2014-08-02T10:50:00,2,20877748,201535
OK,48,49,796,48,2014-08-02T10:55:00,7,20878197,201535
OK,72,33,796,72,2014-08-02T11:00:00,9,20878646,201535
OK,65,36,796,65,2014-08-02T11:05:00,14,20879095,201535
OK,57,42,796,57,2014-08-02T11:10:00,11,20879544,201535
OK,71,33,796,71,2014-08-02T11:15:00,9,20879993,201535
OK,80,29,796,80,2014-08-02T11:20:00,8,20880442,201535
OK,82,29,796,82,2014-08-02T11:25:00,4,20880891,201535
OK,57,42,796,57,2014-08-02T11:30:00,9,20881340,201535
OK,57,42,796,57,2014-08-02T11:35:00,15,20881789,201535
OK,65,36,796,65,2014-08-02T11:40:00,20,20882238,201535
OK,65,36,796,65,2014-08-02T11:45:00,15,20882687,201535
OK,76,31,796,76,2014-08-02T11:50:00,4,20883136,201535
OK,70,34,796,70,2014-08-02T11:55:00,2,20883585,201535
OK,58,41,796,58,2014-08-02T12:00:00,2,20884034,201535
OK,99,24,796,99,2014-08-02T12:05:00,3,20884483,201535
OK,78,30,796,78,2014-08-02T12:10:00,5,20884932,201535
OK,65,36,796,65,2014-08-02T12:15:00,7,20885381,201535
OK,75,31,796,75,2014-08-02T12:20:00,4,20885830,201535
OK,80,29,796,80,2014-08-02T12:25:00,6,20886279,201535
OK,69,34,796,69,2014-08-02T12:30:00,12,20886728,201535
OK,64,37,796,64,2014-08-02T12:35:00,13,20887177,201535
OK,56,42,796,56,2014-08-02T12:40:00,10,20887626,201535
OK,69,34,796,69,2014-08-02T12:45:00,10,20888075,201535
OK,59,40,796,59,2014-08-02T12:50:00,8,20888524,201535
OK,57,42,796,57,2014-08-02T12:55:00,6,20888973,201535
OK,55,43,796,55,2014-08-02T13:00:00,6,20889422,201535
OK,46,52,796,46,2014-08-02T13:05:00,1,20889871,201535
OK,79,30,796,79,2014-08-02T13:10:00,3,20890320,201535
OK,47,50,796,47,2014-08-02T13:15:00,7,20890769,201535
OK,63,38,796,63,2014-08-02T13:20:00,9,20891218,201535
OK,51,46,796,51,2014-08-02T13:25:00,4,20891667,201535
OK,58,41,796,58,2014-08-02T13:30:00,3,20892116,201535
OK,68,35,796,68,2014-08-02T13:35:00,12,20892565,201535
OK,70,34,796,70,2014-08-02T13:40:00,13,20893014,201535
OK,90,26,796,90,2014-08-02T13:45:00,7,20893463,201535
OK,73,32,796,73,2014-08-02T13:50:00,11,20893912,201535
OK,65,36,796,65,2014-08-02T13:55:00,12,20894361,201535
OK,44,54,796,44,2014-08-02T14:00:00,10,20894810,201535
OK,44,54,796,44,2014-08-02T14:05:00,6,20895259,201535
OK,58,41,796,58,2014-08-02T14:10:00,4,20895708,201535
OK,66,36,796,66,2014-08-02T14:15:00,5,20896157,201535
OK,65,36,796,65,2014-08-02T14:20:00,6,20896606,201535
OK,67,35,796,67,2014-08-02T14:25:00,5,20897055,201535
OK,44,54,796,44,2014-08-02T14:30:00,9,20897504,201535
OK,54,44,796,54,2014-08-02T14:35:00,11,20897953,201535
OK,75,31,796,75,2014-08-02T14:40:00,5,20898402,201535
OK,87,27,796,87,2014-08-02T14:45:00,0,20898851,201535
OK,87,27,796,87,2014-08-02T14:50:00,5,20899300,201535
OK,44,54,796,44,2014-08-02T14:55:00,10,20899749,201535
OK,44,54,796,44,2014-08-02T15:00:00,8,20900198,201535
OK,74,32,796,74,2014-08-02T15:05:00,5,20900647,201535
OK,72,33,796,72,2014-08-02T15:10:00,4,20901096,201535
OK,72,33,796,72,2014-08-02T15:15:00,4,20901545,201535
OK,80,29,796,80,2014-08-02T15:20:00,5,20901994,201535
OK,44,54,796,44,2014-08-02T15:25:00,8,20902443,201535
OK,40,59,796,40,2014-08-02T15:30:00,5,20902892,201535
OK,43,55,796,43,2014-08-02T15:35:00,3,20903341,201535
OK,56,42,796,56,2014-08-02T15:40:00,4,20903790,201535
OK,82,29,796,82,2014-08-02T15:45:00,3,20904239,201535
OK,69,34,796,69,2014-08-02T15:50:00,7,20904688,201535
OK,55,43,796,55,2014-08-02T15:55:00,8,20905137,201535
OK,66,36,796,66,2014-08-02T16:00:00,9,20905586,201535
OK,68,35,796,68,2014-08-02T16:05:00,10,20906035,201535
OK,64,37,796,64,2014-08-02T16:10:00,9,20906484,201535
OK,58,41,796,58,2014-08-02T16:15:00,5,20906933,201535
OK,58,41,796,58,2014-08-02T16:20:00,3,20907382,201535
OK,50,47,796,50,2014-08-02T16:25:00,4,20907831,201535
OK,63,38,796,63,2014-08-02T16:30:00,5,20908280,201535
OK,71,33,796,71,2014-08-02T16:35:00,4,20908729,201535
OK,44,54,796,44,2014-08-02T16:40:00,3,20909178,201535
OK,44,54,796,44,2014-08-02T16:45:00,5,20909627,201535
OK,51,46,796,51,2014-08-02T16:50:00,6,20910076,201535
OK,70,34,796,70,2014-08-02T16:55:00,6,20910525,201535
OK,69,34,796,69,2014-08-02T17:00:00,5,20910974,201535
OK,47,50,796,47,2014-08-02T17:05:00,3,20911423,201535
OK,56,42,796,56,2014-08-02T17:10:00,3,20911872,201535
OK,58,41,796,58,2014-08-02T17:15:00,2,20912321,201535
OK,41,58,796,41,2014-08-02T17:20:00,1,20912770,201535
OK,41,58,796,41,2014-08-02T17:25:00,1,20913219,201535
OK,39,61,796,39,2014-08-02T17:30:00,1,20913668,201535
OK,40,59,796,40,2014-08-02T17:35:00,3,20914117,201535
OK,43,55,796,43,2014-08-02T17:40:00,2,20914566,201535
OK,37,64,796,37,2014-08-02T17:45:00,2,20915015,201535
OK,35,68,796,35,2014-08-02T17:50:00,1,20915464,201535
OK,61,39,796,61,2014-08-02T17:55:00,1,20915913,201535
OK,61,39,796,61,2014-08-02T18:00:00,1,20916362,201535
OK,61,39,796,61,2014-08-02T18:05:00,0,20916811,201535
OK,108,22,796,108,2014-08-02T18:10:00,1,20917260,201535
OK,81,29,796,81,2014-08-02T18:15:00,3,20917709,201535
OK,81,29,796,81,2014-08-02T18:20:00,1,20918158,201535
OK,116,20,796,116,2014-08-02T18:25:00,1,20918607,201535
OK,116,20,796,116,2014-08-02T18:30:00,1,20919056,201535
OK,44,54,796,44,2014-08-02T18:35:00,3,20919505,201535
OK,44,54,796,44,2014-08-02T18:40:00,3,20919954,201535
OK,46,52,796,46,2014-08-02T18:45:00,1,20920403,201535
OK,46,52,796,46,2014-08-02T18:50:00,0,20920852,201535
OK,46,52,796,46,2014-08-02T18:55:00,0,20921301,201535
OK,61,39,796,61,2014-08-02T19:00:00,2,20921750,201535
OK,52,46,796,52,2014-08-02T19:05:00,3,20922199,201535
OK,62,38,796,62,2014-08-02T19:10:00,0,20922648,201535
OK,46,52,796,46,2014-08-02T19:15:00,3,20923097,201535
OK,44,54,796,44,2014-08-02T19:20:00,4,20923546,201535
OK,40,59,796,40,2014-08-02T19:25:00,3,20923995,201535
OK,38,63,796,38,2014-08-02T19:30:00,7,20924444,201535
OK,38,63,796,38,2014-08-02T19:35:00,5,20924893,201535
OK,61,39,796,61,2014-08-02T19:40:00,1,20925342,201535
OK,61,39,796,61,2014-08-02T19:45:00,1,20925791,201535
OK,60,39,796,60,2014-08-02T19:50:00,1,20926240,201535
OK,49,48,796,49,2014-08-02T19:55:00,2,20926689,201535
OK,44,54,796,44,2014-08-02T20:00:00,2,20927138,201535
OK,75,31,796,75,2014-08-02T20:05:00,3,20927587,201535
OK,98,24,796,98,2014-08-02T20:10:00,2,20928036,201535
OK,72,33,796,72,2014-08-02T20:15:00,2,20928485,201535
OK,46,52,796,46,2014-08-02T20:20:00,2,20928934,201535
OK,60,39,796,60,2014-08-02T20:25:00,4,20929383,201535
OK,39,61,796,39,2014-08-02T20:30:00,3,20929832,201535
OK,44,54,796,44,2014-08-02T20:35:00,3,20930281,201535
OK,85,28,796,85,2014-08-02T20:40:00,2,20930730,201535
OK,55,43,796,55,2014-08-02T20:45:00,2,20931179,201535
OK,66,36,796,66,2014-08-02T20:50:00,0,20931628,201535
OK,58,41,796,58,2014-08-02T20:55:00,1,20932077,201535
OK,58,41,796,58,2014-08-02T21:00:00,1,20932526,201535
OK,40,59,796,40,2014-08-02T21:05:00,1,20932975,201535
OK,46,52,796,46,2014-08-02T21:10:00,2,20933424,201535
OK,40,59,796,40,2014-08-02T21:15:00,2,20933873,201535
OK,29,82,796,29,2014-08-02T21:20:00,0,20934322,201535
OK,57,42,796,57,2014-08-02T21:25:00,1,20934771,201535
OK,49,48,796,49,2014-08-02T21:30:00,4,20935220,201535
OK,39,61,796,39,2014-08-02T21:35:00,2,20935669,201535
OK,39,61,796,39,2014-08-02T21:40:00,3,20936118,201535
OK,45,53,796,45,2014-08-02T21:45:00,4,20936567,201535
OK,47,50,796,47,2014-08-02T21:50:00,3,20937016,201535
OK,40,59,796,40,2014-08-02T21:55:00,1,20937465,201535
OK,40,59,796,40,2014-08-02T22:00:00,0,20937914,201535
OK,64,37,796,64,2014-08-02T22:05:00,2,20938363,201535
OK,64,37,796,64,2014-08-02T22:10:00,2,20938812,201535
OK,55,43,796,55,2014-08-02T22:15:00,2,20939261,201535
OK,49,48,796,49,2014-08-02T22:20:00,2,20939710,201535
OK,38,63,796,38,2014-08-02T22:25:00,1,20940159,201535
OK,39,61,796,39,2014-08-02T22:30:00,2,20940608,201535
OK,40,59,796,40,2014-08-02T22:35:00,1,20941057,201535
OK,41,58,796,41,2014-08-02T22:40:00,2,20941506,201535
OK,44,54,796,44,2014-08-02T22:45:00,2,20941955,201535
OK,42,57,796,42,2014-08-02T22:50:00,2,20942404,201535
OK,35,68,796,35,2014-08-02T22:55:00,1,20942853,201535
OK,35,68,796,35,2014-08-02T23:00:00,0,20943302,201535
OK,32,74,796,32,2014-08-02T23:10:00,1,20943751,201535
OK,32,74,796,32,2014-08-02T23:15:00,0,20944200,201535
OK,47,50,796,47,2014-08-02T23:20:00,1,20944649,201535
OK,47,50,796,47,2014-08-02T23:25:00,0,20945098,201535
OK,47,50,796,47,2014-08-02T23:30:00,0,20945547,201535
OK,38,63,796,38,2014-08-02T23:35:00,1,20945996,201535
OK,38,63,796,38,2014-08-02T23:40:00,1,20946445,201535
OK,38,63,796,38,2014-08-02T23:45:00,1,20946894,201535
OK,38,63,796,38,2014-08-02T23:50:00,0,20947343,201535
OK,38,63,796,38,2014-08-02T23:55:00,0,20947792,201535
OK,38,63,796,38,2014-08-03T00:00:00,0,20948241,201535
OK,37,64,796,37,2014-08-03T00:05:00,1,20948690,201535
OK,38,63,796,38,2014-08-03T00:10:00,3,20949139,201535
OK,39,61,796,39,2014-08-03T00:15:00,1,20949587,201535
OK,39,61,796,39,2014-08-03T00:20:00,0,20950036,201535
OK,39,61,796,39,2014-08-03T00:25:00,0,20950485,201535
OK,39,61,796,39,2014-08-03T00:30:00,0,20950934,201535
OK,39,61,796,39,2014-08-03T00:35:00,0,20951383,201535
OK,39,61,796,39,2014-08-03T00:40:00,0,20951832,201535
OK,39,61,796,39,2014-08-03T00:45:00,0,20952281,201535
OK,39,61,796,39,2014-08-03T00:50:00,0,20952730,201535